| time (UTC) | temp F | wind direction | speed MPH | gust MPH | rain 1hr in | rain 24hr in | rain mn in | humidity % | barometer mb |
| 20260509174521 | 69 | 171 | 0.0 | 3.0 | 0.00 | 0.01 | 0.01 | 85 | 1012.5 |
| 20260509173011 | 67 | 103 | 0.0 | 3.0 | 0.00 | 0.01 | 0.01 | 88 | 1012.7 |
| 20260509171509 | 67 | 165 | 0.0 | 4.0 | 0.00 | 0.01 | 0.01 | 89 | 1012.7 |
| 20260509170010 | 66 | 179 | 0.0 | 2.0 | 0.00 | 0.01 | 0.01 | 90 | 1012.7 |
| 20260509164505 | 66 | 269 | 0.0 | 4.0 | 0.00 | 0.01 | 0.01 | 92 | 1012.7 |
| 20260509163003 | 65 | 171 | 0.0 | 2.0 | 0.00 | 0.01 | 0.01 | 96 | 1013.1 |
| 20260509161602 | 64 | 184 | 0.0 | 2.0 | 0.00 | 0.01 | 0.01 | 97 | 1012.9 |
| 20260509160057 | 64 | 184 | 0.0 | 2.0 | 0.00 | 0.01 | 0.01 | 98 | 1013.0 |
| 20260509154554 | 63 | 184 | 0.0 | 3.0 | 0.00 | 0.01 | 0.01 | 99 | 1013.0 |
| 20260509153103 | 62 | 280 | 0.0 | 2.0 | 0.00 | 0.01 | 0.01 | 99 | 1013.1 |
| 20260509151549 | 62 | 279 | 0.0 | 2.0 | 0.00 | 0.01 | 0.01 | 99 | 1013.2 |
| 20260509150046 | 62 | 316 | 0.0 | 3.0 | 0.00 | 0.01 | 0.01 | 99 | 1013.1 |
| 20260509144546 | 62 | 325 | 0.0 | 1.0 | 0.00 | 0.01 | 0.01 | 99 | 1013.0 |
| 20260509143044 | 61 | 192 | 0.0 | 3.0 | 0.00 | 0.01 | 0.01 | 99 | 1013.0 |
| 20260509141542 | 61 | 163 | 0.0 | 2.0 | 0.00 | 0.01 | 0.01 | 99 | 1013.1 |
| 20260509140041 | 61 | 220 | 0.0 | 2.0 | 0.00 | 0.01 | 0.01 | 99 | 1013.1 |
| 20260509134541 | 61 | 333 | 0.0 | 2.0 | 0.00 | 0.01 | 0.01 | 99 | 1013.3 |
| 20260509133038 | 61 | 153 | 0.0 | 3.0 | 0.00 | 0.01 | 0.01 | 99 | 1012.8 |
| 20260509131535 | 61 | 153 | 0.0 | 1.0 | 0.00 | 0.01 | 0.01 | 99 | 1012.5 |
| 20260509130040 | 61 | 153 | 0.0 | 3.0 | 0.00 | 0.01 | 0.01 | 99 | 1012.3 |
| 20260509124541 | 61 | 223 | 0.0 | 0.0 | 0.00 | 0.01 | 0.01 | 99 | 1012.0 |
| 20260509123035 | 61 | 223 | 0.0 | 3.0 | 0.00 | 0.01 | 0.01 | 99 | 1012.2 |
| 20260509121533 | 61 | 186 | 0.0 | 2.0 | 0.00 | 0.01 | 0.01 | 99 | 1012.0 |
| 20260509120030 | 60 | 188 | 0.0 | 2.0 | 0.00 | 0.01 | 0.01 | 99 | 1012.0 |
| 20260509114528 | 60 | 188 | 0.0 | 2.0 | 0.00 | 0.01 | 0.01 | 99 | 1012.0 |
| 20260509113027 | 60 | 163 | 1.0 | 3.0 | 0.00 | 0.01 | 0.01 | 99 | 1012.3 |
| 20260509111526 | 60 | 250 | 1.0 | 3.0 | 0.00 | 0.01 | 0.01 | 99 | 1011.9 |
| 20260509110025 | 60 | 351 | 1.0 | 3.0 | 0.00 | 0.01 | 0.01 | 99 | 1011.9 |
| 20260509104525 | 60 | 198 | 0.0 | 2.0 | 0.00 | 0.01 | 0.01 | 99 | 1011.8 |
| 20260509103023 | 60 | 195 | 0.0 | 2.0 | 0.00 | 0.01 | 0.01 | 99 | 1011.4 |
| 20260509101526 | 60 | 117 | 0.0 | 1.0 | 0.00 | 0.01 | 0.01 | 99 | 1011.7 |
| 20260509100026 | 60 | 117 | 0.0 | 2.0 | 0.00 | 0.01 | 0.01 | 98 | 1011.2 |
| 20260509094521 | 60 | 117 | 0.0 | 1.0 | 0.00 | 0.01 | 0.01 | 98 | 1010.7 |
| 20260509093024 | 60 | 117 | 0.0 | 2.0 | 0.01 | 0.01 | 0.01 | 98 | 1010.6 |
| 20260509091521 | 60 | 117 | 0.0 | 1.0 | 0.01 | 0.01 | 0.01 | 98 | 1010.6 |
| 20260509090032 | 60 | 117 | 0.0 | 0.0 | 0.01 | 0.01 | 0.01 | 98 | 1010.7 |
| 20260509084517 | 59 | 118 | 0.0 | 2.0 | 0.01 | 0.01 | 0.01 | 98 | 1010.6 |
| 20260509083029 | 59 | 193 | 0.0 | 2.0 | 0.00 | 0.00 | 0.00 | 97 | 1011.9 |
| 20260509081513 | 59 | 191 | 0.0 | 2.0 | 0.00 | 0.00 | 0.00 | 97 | 1012.0 |
| 20260509080011 | 58 | 171 | 0.0 | 2.0 | 0.00 | 0.00 | 0.00 | 97 | 1012.4 |
| 20260509074511 | 58 | 287 | 0.0 | 1.0 | 0.00 | 0.00 | 0.00 | 97 | 1012.2 |
| 20260509073017 | 58 | 287 | 0.0 | 3.0 | 0.00 | 0.00 | 0.00 | 97 | 1012.0 |
| 20260509071510 | 58 | 285 | 0.0 | 1.0 | 0.00 | 0.00 | 0.00 | 97 | 1011.7 |
| 20260509070007 | 57 | 285 | 0.0 | 1.0 | 0.00 | 0.00 | 0.00 | 97 | 1011.5 |
| 20260509064506 | 57 | 285 | 0.0 | 1.0 | 0.00 | 0.00 | 0.00 | 98 | 1011.8 |
| 20260509063013 | 56 | 284 | 0.0 | 0.0 | 0.00 | 0.00 | 0.00 | 97 | 1011.7 |
| 20260509061504 | 56 | 284 | 0.0 | 0.0 | 0.00 | 0.00 | 0.00 | 97 | 1011.6 |
| 20260509060003 | 56 | 284 | 0.0 | 0.0 | 0.00 | 0.00 | 0.00 | 97 | 1011.9 |
| 20260509054613 | 56 | 284 | 0.0 | 1.0 | 0.00 | 0.00 | 0.00 | 97 | 1012.1 |
| 20260509053130 | 56 | 284 | 0.0 | 0.0 | 0.00 | 0.00 | 0.00 | 96 | 1012.2 |
| 20260509051557 | 56 | 284 | 0.0 | 0.0 | 0.00 | 0.00 | 0.00 | 96 | 1012.5 |
| 20260509050054 | 57 | 284 | 0.0 | 0.0 | 0.00 | 0.00 | 0.00 | 96 | 1012.5 |
| 20260509044631 | 57 | 284 | 0.0 | 2.0 | 0.00 | 0.00 | 0.00 | 95 | 1012.6 |
| 20260509043132 | 57 | 285 | 0.0 | 1.0 | 0.00 | 0.00 | 0.00 | 95 | 1012.5 |
| 20260509041551 | 57 | 285 | 0.0 | 1.0 | 0.00 | 0.00 | 0.00 | 95 | 1012.5 |
| 20260509040050 | 58 | 285 | 0.0 | 0.0 | 0.00 | 0.00 | 0.00 | 94 | 1012.4 |
| 20260509034551 | 58 | 285 | 0.0 | 1.0 | 0.00 | 0.00 | 0.00 | 94 | 1012.5 |
| 20260509033052 | 58 | 285 | 0.0 | 0.0 | 0.00 | 0.00 | 0.00 | 94 | 1012.8 |
| 20260509031558 | 58 | 285 | 0.0 | 0.0 | 0.00 | 0.00 | 0.00 | 93 | 1012.5 |
| 20260509030107 | 58 | 285 | 0.0 | 0.0 | 0.00 | 0.00 | 0.00 | 93 | 1012.1 |
| 20260509024549 | 58 | 285 | 0.0 | 0.0 | 0.00 | 0.00 | 0.00 | 92 | 1012.4 |
| 20260509023047 | 58 | 285 | 0.0 | 0.0 | 0.00 | 0.00 | 0.00 | 91 | 1012.7 |
| 20260509021548 | 59 | 285 | 0.0 | 0.0 | 0.00 | 0.00 | 0.00 | 91 | 1012.7 |
| 20260509020050 | 58 | 285 | 0.0 | 0.0 | 0.00 | 0.00 | 0.00 | 91 | 1012.8 |
| 20260509014547 | 59 | 285 | 0.0 | 0.0 | 0.00 | 0.00 | 0.00 | 91 | 1012.5 |
| 20260509013046 | 59 | 285 | 0.0 | 0.0 | 0.00 | 0.00 | 0.00 | 90 | 1012.3 |
| 20260509011550 | 59 | 285 | 0.0 | 1.0 | 0.00 | 0.00 | 0.00 | 90 | 1012.4 |
| 20260509010044 | 60 | 285 | 0.0 | 1.0 | 0.00 | 0.00 | 0.00 | 90 | 1012.6 |
| 20260509004553 | 60 | 285 | 0.0 | 0.0 | 0.00 | 0.00 | 0.00 | 89 | 1012.6 |
| 20260509003051 | 60 | 285 | 0.0 | 1.0 | 0.00 | 0.00 | 0.00 | 88 | 1012.7 |
| 20260509001542 | 61 | 285 | 0.0 | 1.0 | 0.00 | 0.00 | 0.00 | 89 | 1012.8 |
| 20260509000041 | 61 | 285 | 0.0 | 0.0 | 0.00 | 0.00 | 0.00 | 88 | 1012.7 |
| 20260508234539 | 62 | 285 | 0.0 | 0.0 | 0.00 | 0.00 | 0.00 | 87 | 1013.1 |
| 20260508233040 | 62 | 285 | 0.0 | 0.0 | 0.00 | 0.00 | 0.00 | 86 | 1013.5 |
| 20260508231536 | 63 | 285 | 0.0 | 1.0 | 0.00 | 0.00 | 0.00 | 85 | 1013.7 |
| 20260508230035 | 63 | 285 | 0.0 | 2.0 | 0.00 | 0.00 | 0.00 | 85 | 1013.8 |
| 20260508224548 | 64 | 285 | 0.0 | 0.0 | 0.00 | 0.00 | 0.00 | 85 | 1013.6 |
| 20260508223046 | 64 | 283 | 0.0 | 1.0 | 0.00 | 0.00 | 0.00 | 84 | 1013.9 |
| 20260508221533 | 64 | 283 | 0.0 | 0.0 | 0.00 | 0.00 | 0.00 | 84 | 1013.8 |
| 20260508220034 | 64 | 283 | 0.0 | 0.0 | 0.00 | 0.00 | 0.00 | 83 | 1013.6 |
| 20260508214530 | 65 | 283 | 0.0 | 0.0 | 0.00 | 0.00 | 0.00 | 81 | 1013.8 |
| 20260508213030 | 65 | 283 | 0.0 | 0.0 | 0.00 | 0.00 | 0.00 | 81 | 1013.9 |
| 20260508211529 | 65 | 283 | 0.0 | 1.0 | 0.00 | 0.00 | 0.00 | 79 | 1014.0 |
| 20260508210030 | 65 | 290 | 0.0 | 1.0 | 0.00 | 0.00 | 0.00 | 78 | 1014.2 |
| 20260508204530 | 65 | 277 | 0.0 | 1.0 | 0.00 | 0.00 | 0.00 | 80 | 1014.3 |
| 20260508203028 | 65 | 277 | 0.0 | 2.0 | 0.00 | 0.00 | 0.00 | 75 | 1013.9 |
| 20260508201527 | 65 | 269 | 0.0 | 0.0 | 0.00 | 0.00 | 0.00 | 78 | 1014.2 |
| 20260508200028 | 65 | 269 | 0.0 | 1.0 | 0.00 | 0.00 | 0.00 | 75 | 1014.3 |
| 20260508194533 | 66 | 267 | 0.0 | 3.0 | 0.00 | 0.00 | 0.00 | 76 | 1014.5 |
| 20260508193024 | 66 | 263 | 0.0 | 2.0 | 0.00 | 0.00 | 0.00 | 72 | 1014.7 |
| 20260508191532 | 65 | 103 | 0.0 | 2.0 | 0.00 | 0.00 | 0.00 | 73 | 1014.6 |
| 20260508190024 | 66 | 79 | 2.0 | 6.0 | 0.00 | 0.00 | 0.00 | 71 | 1014.2 |
| 20260508184524 | 66 | 102 | 1.0 | 4.0 | 0.00 | 0.00 | 0.00 | 69 | 1014.5 |
| 20260508183028 | 66 | 80 | 1.0 | 4.0 | 0.00 | 0.00 | 0.00 | 70 | 1015.0 |
| 20260508181520 | 67 | 142 | 0.0 | 4.0 | 0.00 | 0.00 | 0.00 | 68 | 1015.4 |
| 20260508180022 | 67 | 219 | 1.0 | 3.0 | 0.00 | 0.00 | 0.00 | 69 | 1015.5 |